Oakes, ND

3:50 AM CST on February 13, 2016 (GMT -0600)
Oakes

Weather History for K2D5 - September, 2013

Change the Weather History Date:

Monday, September 2, 2013

  Actual Average (KABR) Record (KABR)
Temperature  
Mean Temperature 58 °F 65 °F  
Max Temperature 75 °F 78 °F 101 °F (1983)
Min Temperature 42 °F 52 °F 35 °F (1896)
Degree Days  
Heating Degree Days 6 3  
Month to date heating degree days 6  
Since 1 July heating degree days 57  
Cooling Degree Days 0 3  
Month to date cooling degree days 6  
Year to date cooling degree days 489  
Growing Degree Days 8 (Base 50)    
Moisture  
Dew Point 50 °F    
Average Humidity 77    
Maximum Humidity 100    
Minimum Humidity 38    
Precipitation  
Precipitation 0.00 in 0.08 in 1.56 in (1973)
Month to date precipitation 0.16  
Year to date precipitation 16.45  
Sea Level Pressure  
Sea Level Pressure 30.08 in    
Wind  
Wind Speed - (North)    
Max Wind Speed -    
Max Gust Speed -    
Visibility 10 miles    
Events Fog    
T = Trace of Precipitation, MM = Missing Value Source: NWS Daily Summary

Daily Weather History Graph

Daily Weather History Graph

Search for Another Location

Airport or City:

Trip Planner

Search our weather history database for the weather conditions in past years. The results will help you decide how hot, cold, wet, or windy it might be!

Date:

Astronomy

Sep. 02, 2013 Rise Set
Actual Time 6:54 AM CDT 8:08 PM CDT
Civil Twilight 6:23 AM CDT 8:39 PM CDT
Nautical Twilight 5:46 AM CDT 9:16 PM CDT
Astronomical Twilight 5:06 AM CDT 9:55 PM CDT
Moon 4:07 AM CDT (9/2) 6:26 PM CDT (9/2)
Length of Visible Light 14h 15m
Length of Day
13h 13m
Waning Crescent, 8% of the Moon is Illuminated
Sep 2
Waning Crescent
Sep 5
New
Sep 12
First Quarter
Sep 19
Full
Sep 26
Last Quarter

Hourly Weather History & Observations

Time (CDT) Temp. Dew Point Humidity Pressure Visibility Wind Dir Wind Speed Gust Speed Precip Events Conditions
12:15 AM 50.0 °F 50.0 °F 100% 30.07 in 10.0 mi North - - N/A   Unknown
12:35 AM 48.2 °F 48.2 °F 100% 30.08 in 10.0 mi North - - N/A   Unknown
12:55 AM 50.0 °F 50.0 °F 100% 30.08 in 10.0 mi North - - N/A   Unknown
1:15 AM 48.2 °F 48.2 °F 100% 30.09 in 10.0 mi North - - N/A   Unknown
1:35 AM 48.2 °F 48.2 °F 100% 30.09 in 10.0 mi North - - N/A   Unknown
1:55 AM 48.2 °F 48.2 °F 100% 30.09 in 10.0 mi North - - N/A   Unknown
2:15 AM 48.2 °F 48.2 °F 100% 30.08 in 10.0 mi North - - N/A   Unknown
2:35 AM 46.4 °F 46.4 °F 100% 30.09 in 10.0 mi North - - N/A   Unknown
2:55 AM 46.4 °F 46.4 °F 100% 30.09 in 10.0 mi North - - N/A   Unknown
3:15 AM 48.2 °F 48.2 °F 100% 30.09 in 10.0 mi North - - N/A   Unknown
3:35 AM 46.4 °F 46.4 °F 100% 30.09 in 10.0 mi North - - N/A   Unknown
3:55 AM 46.4 °F 46.4 °F 100% 30.10 in 10.0 mi North - - N/A   Unknown
4:15 AM 46.4 °F 46.4 °F 100% 30.10 in 10.0 mi North - - N/A   Unknown
4:35 AM 46.4 °F 46.4 °F 100% 30.11 in 10.0 mi North - - N/A   Unknown
4:55 AM 46.4 °F 46.4 °F 100% 30.11 in 10.0 mi North - - N/A   Unknown
5:15 AM 46.4 °F 46.4 °F 100% 30.11 in 10.0 mi North - - N/A   Unknown
5:35 AM 44.6 °F 44.6 °F 100% 30.12 in 10.0 mi North - - N/A   Unknown
5:55 AM 44.6 °F 44.6 °F 100% 30.12 in 10.0 mi North - - N/A   Unknown
6:15 AM 44.6 °F 44.6 °F 100% 30.13 in 9.0 mi North - - N/A   Unknown
6:35 AM 42.8 °F 42.8 °F 100% 30.13 in 1.0 mi North - - N/A   Mist
6:55 AM 44.6 °F 44.6 °F 100% 30.13 in 10.0 mi North - - N/A   Unknown
7:15 AM 42.8 °F 42.8 °F 100% 30.13 in 2.5 mi North - - N/A   Mist
7:35 AM 42.8 °F 42.8 °F 100% 30.14 in 1.0 mi North - - N/A   Mist
7:55 AM 44.6 °F 44.6 °F 100% 30.14 in 0.5 mi North - - N/A Fog Fog
8:15 AM 48.2 °F 48.2 °F 100% 30.14 in 10.0 mi North - - N/A   Unknown
8:35 AM 50.0 °F 50.0 °F 100% 30.14 in 10.0 mi North - - N/A   Unknown
8:55 AM 53.6 °F 53.6 °F 100% 30.14 in 10.0 mi North - - N/A   Unknown
9:15 AM 55.4 °F 53.6 °F 94% 30.14 in 10.0 mi North - - N/A   Unknown
9:35 AM 57.2 °F 53.6 °F 88% 30.14 in 10.0 mi North - - N/A   Unknown
9:55 AM 59.0 °F 53.6 °F 82% 30.13 in 10.0 mi North - - N/A   Unknown
10:15 AM 60.8 °F 53.6 °F 77% 30.13 in 10.0 mi North - - N/A   Unknown
10:35 AM 62.6 °F 48.2 °F 59% 30.14 in 10.0 mi North - - N/A   Unknown
10:55 AM 64.4 °F 48.2 °F 56% 30.13 in 10.0 mi North - - N/A   Unknown
11:15 AM 64.4 °F 50.0 °F 59% 30.13 in 10.0 mi North - - N/A   Unknown
11:35 AM 66.2 °F 48.2 °F 52% 30.13 in 10.0 mi North - - N/A   Unknown
11:55 AM 66.2 °F 50.0 °F 56% 30.12 in 10.0 mi North - - N/A   Unknown
12:15 PM 66.2 °F 48.2 °F 52% 30.12 in 10.0 mi North - - N/A   Unknown
12:35 PM 68.0 °F 48.2 °F 49% 30.11 in 10.0 mi North - - N/A   Unknown
12:55 PM 69.8 °F 48.2 °F 46% 30.10 in 10.0 mi North - - N/A   Unknown
1:15 PM 69.8 °F 48.2 °F 46% 30.10 in 10.0 mi North - - N/A   Unknown
1:35 PM 71.6 °F 48.2 °F 43% 30.09 in 10.0 mi North - - N/A   Unknown
1:55 PM 71.6 °F 48.2 °F 43% 30.08 in 10.0 mi North - - N/A   Unknown
2:15 PM 71.6 °F 48.2 °F 43% 30.08 in 10.0 mi North - - N/A   Unknown
2:35 PM 73.4 °F 48.2 °F 41% 30.07 in 10.0 mi North - - N/A   Unknown
2:55 PM 71.6 °F 50.0 °F 46% 30.06 in 10.0 mi North - - N/A   Unknown
3:15 PM 73.4 °F 50.0 °F 44% 30.06 in 10.0 mi North - - N/A   Unknown
3:35 PM 73.4 °F 48.2 °F 41% 30.05 in 10.0 mi North - - N/A   Unknown
3:55 PM 73.4 °F 48.2 °F 41% 30.05 in 10.0 mi North - - N/A   Unknown
4:15 PM 73.4 °F 50.0 °F 44% 30.05 in 10.0 mi North - - N/A   Unknown
4:35 PM 75.2 °F 48.2 °F 38% 30.04 in 10.0 mi North - - N/A   Unknown
4:55 PM 75.2 °F 48.2 °F 38% 30.03 in 10.0 mi North - - N/A   Unknown
5:15 PM 73.4 °F 50.0 °F 44% 30.03 in 10.0 mi North - - N/A   Unknown
5:35 PM 73.4 °F 51.8 °F 47% 30.03 in 10.0 mi North - - N/A   Unknown
5:55 PM 73.4 °F 51.8 °F 47% 30.03 in 10.0 mi North - - N/A   Unknown
6:15 PM 71.6 °F 51.8 °F 50% 30.02 in 10.0 mi North - - N/A   Unknown
6:35 PM 73.4 °F 51.8 °F 47% 30.02 in 10.0 mi North - - N/A   Unknown
6:55 PM 71.6 °F 53.6 °F 53% 30.02 in 10.0 mi North - - N/A   Unknown
7:15 PM 71.6 °F 53.6 °F 53% 30.02 in 10.0 mi North - - N/A   Unknown
7:35 PM 68.0 °F 53.6 °F 60% 30.02 in 10.0 mi North - - N/A   Unknown
7:55 PM 64.4 °F 53.6 °F 68% 30.02 in 10.0 mi North - - N/A   Unknown
8:15 PM 60.8 °F 53.6 °F 77% 30.02 in 10.0 mi North - - N/A   Unknown
8:35 PM 57.2 °F 53.6 °F 88% 30.01 in 10.0 mi North - - N/A   Unknown
8:55 PM 57.2 °F 53.6 °F 88% 30.02 in 10.0 mi North - - N/A   Unknown
9:15 PM 57.2 °F 53.6 °F 88% 30.02 in 10.0 mi North - - N/A   Unknown
9:35 PM 55.4 °F 53.6 °F 94% 30.02 in 10.0 mi North - - N/A   Unknown
9:55 PM 55.4 °F 53.6 °F 94% 30.02 in 10.0 mi North - - N/A   Unknown
10:15 PM 55.4 °F 53.6 °F 94% 30.02 in 10.0 mi North - - N/A   Unknown
10:35 PM 53.6 °F 53.6 °F 100% 30.02 in 10.0 mi North - - N/A   Unknown
10:55 PM 53.6 °F 53.6 °F 100% 30.02 in 10.0 mi North - - N/A   Unknown
11:15 PM 55.4 °F 53.6 °F 94% 30.02 in 10.0 mi North - - N/A   Unknown
11:35 PM 53.6 °F 53.6 °F 100% 30.02 in 10.0 mi North - - N/A   Unknown
11:55 PM 53.6 °F 53.6 °F 100% 30.01 in 10.0 mi North - - N/A   Unknown